TimePDT,TemperatureF,Dew PointF,Humidity,Sea Level PressureIn,VisibilityMPH,Wind Direction,Wind SpeedMPH,Gust SpeedMPH,PrecipitationIn,Events,Conditions,WindDirDegrees,DateUTC
12:56 AM,42.1,12.0,29,30.13,10.0,West,6.9,-,N/A,,Clear,270,2012-10-27 07:56:00
1:56 AM,39.9,10.9,31,30.11,10.0,West,5.8,-,N/A,,Clear,260,2012-10-27 08:56:00
2:56 AM,37.0,10.9,34,30.11,10.0,WNW,5.8,-,N/A,,Clear,290,2012-10-27 09:56:00
3:56 AM,37.0,10.9,34,30.10,10.0,WNW,4.6,-,N/A,,Clear,300,2012-10-27 10:56:00
4:56 AM,39.0,10.9,32,30.11,10.0,Calm,Calm,-,N/A,,Clear,0,2012-10-27 11:56:00
5:56 AM,37.0,10.9,34,30.13,10.0,Calm,Calm,-,N/A,,Clear,0,2012-10-27 12:56:00
6:56 AM,33.1,9.0,37,30.14,10.0,West,3.5,-,N/A,,Clear,270,2012-10-27 13:56:00
7:56 AM,35.1,10.0,35,30.16,10.0,WNW,3.5,-,N/A,,Clear,290,2012-10-27 14:56:00
8:56 AM,46.0,15.1,29,30.15,10.0,Calm,Calm,-,N/A,,Clear,0,2012-10-27 15:56:00
9:56 AM,55.9,12.9,18,30.13,10.0,Calm,Calm,-,N/A,,Clear,0,2012-10-27 16:56:00
10:56 AM,62.1,12.9,15,30.12,10.0,Calm,Calm,-,N/A,,Clear,0,2012-10-27 17:56:00
11:56 AM,68.0,14.0,12,30.09,10.0,SE,4.6,-,N/A,,Clear,140,2012-10-27 18:56:00
12:56 PM,73.0,15.1,11,30.05,10.0,East,5.8,-,N/A,,Clear,100,2012-10-27 19:56:00
1:56 PM,75.9,16.0,10,30.02,10.0,ENE,5.8,-,N/A,,Clear,60,2012-10-27 20:56:00
2:56 PM,78.1,21.9,12,30.00,10.0,NE,11.5,-,N/A,,Clear,50,2012-10-27 21:56:00
3:56 PM,78.1,19.9,11,29.99,10.0,ENE,10.4,-,N/A,,Clear,70,2012-10-27 22:56:00
4:56 PM,77.0,19.0,11,29.98,10.0,ENE,9.2,-,N/A,,Clear,60,2012-10-27 23:56:00
5:56 PM,72.0,19.0,13,29.99,10.0,NNE,4.6,-,N/A,,Clear,30,2012-10-28 00:56:00
6:56 PM,64.0,17.1,16,30.02,10.0,North,3.5,-,N/A,,Clear,360,2012-10-28 01:56:00
7:56 PM,60.1,18.0,20,30.04,10.0,WSW,3.5,-,N/A,,Clear,250,2012-10-28 02:56:00
8:56 PM,52.0,17.1,25,30.05,10.0,West,6.9,-,N/A,,Clear,280,2012-10-28 03:56:00
9:56 PM,53.1,18.0,25,30.06,10.0,WSW,3.5,-,N/A,,Clear,250,2012-10-28 04:56:00
10:56 PM,48.0,17.1,29,30.06,10.0,NW,5.8,-,N/A,,Clear,310,2012-10-28 05:56:00
11:56 PM,48.0,18.0,30,30.06,10.0,WSW,4.6,-,N/A,,Clear,250,2012-10-28 06:56:00